STARLINK-33752, 63580

Orbit data source: Space-Track

STARLINK-33752, 63580 is a payload satellite owned by SpaceX/Seattle (US) in LEO that was launched on Mon, 14 Apr 2025 UTC via an FALCON 9 launch vehicle from the Air Force Eastern Test Range (AFETR). Payload-class satellites include a variety of spacecraft equipped with specific instruments for various scientific and technological missions. These include communications satellites like Starlink; space stations such as the ISS; scientific satellites like the Hubble; Earth observation satellites from companies like Planet Labs, Umbra, and HawkEye 360; GPS; miniature CubeSats for education and research; and military/defense satellites.

Loading next visibility...
Identifier
63580, 2025-076M
Orbit
LEO
Country
Flag of USUS
Related business
Manufacturer
SpaceX/Seattle
Mission
Operational Commercial Communications
Bus & Motor
STARLINK V2MO, Unknown motor
Mass
575 kg wet, ~530 kg dry
Launch date (UTC)
2025-04-14 (7 months ago)
Launch vehicle
FALCON 9
Launch site
Air Force Eastern Test Range (AFETR)
Object type
Payload
Rocket body
Debris
Shape & HBR
Box + 2 Pan, 17.7 m
Radar Cross Section
36.964 m², Large (>1 m²)

Expand to show TLE details & history
Last TLE update: 1 day ago

TLE from 1 day ago
0 STARLINK-33752
1 63580U 25076M   25301.50815059  .00067227  00000-0  24251-2 0  9996
2 63580  43.0037 348.3009 0001847 259.9172 100.1472 15.27650967 31617
Epoch: 2025-10-28T12:11Z
TLE epoch observation values (Epoch: 2025-10-28T12:11:44.210Z)
Latitude
Longitude
128.27206°
Altitude
482.836 km
Speed
7.626 km/s
True Right ascension
23h 13m 12s
True Declination
0° 00' 00"
Sunlit
Object was in full shadow at epoch
Visualization orbit readout
Latitude
Unknown
Longitude
Unknown
Altitude
Unknown
Speed
Unknown
Apparent Right ascension
Unknown
Apparent Declination
Unknown
Sunlit
N/A
Visualization observer readout
Local Sidereal Time
10:58:28
Azimuth
Unknown
Elevation
Unknown
Doppler factor
Unknown
Orbital elements
Apogee altitude
486.049 km
Perigee altitude
483.514 km
Semi-major axis
6,862.918 km
Eccentricity
0.00018
Inclination
43.0037°
RAAN
348.3009°
Arg. of periapsis
259.9172°
True anomaly
100.16803°
Mean anomaly
100.1472°
Eccentric anomaly
100.15762°
Mean motion
3.81751 °/min
Orbital period
94.3 mins
BSTAR
0.0024251
Loading maneuver chart data...
Computing Atmospheric mass density...
Loading historical data...
Loading historical data...
Loading historical data...
Loading historical data...
Loading historical data...
Loading historical data...
Loading historical data...

Documentation

Showing up to 5 results
|